View from above orbital plane
|
View from above satellite
|
Ground track
|
The orbit data is extracted from the following two-line orbital elements,
1 43803U 18099AX 22135.71502165 .00004362 00000-0 38443-3 0 9995
2 43803 97.6205 203.5625 0014821 22.6589 337.5284 14.96875850188170
Epoch (UTC): | 15 May 2022 17:09:37 |
Eccentricity: | 0.0014821 |
inclination: | 97.6205° |
perigee height: | 566 km |
apogee height: | 587 km |
right ascension of ascending node: | 203.5625° |
argument of perigee: | 22.6589° |
revolutions per day: | 14.96875850 |
mean anomaly at epoch: | 337.5284° |
orbit number at epoch: | 18817 |
The dashed part of the orbit path shows where the satellite is in the earth's shadow,
|
|